Home   Weather   St. Veit an der Glan   Past weeks

Flag for Austria Past Weather in St. Veit an der Glan, Carinthia, Austria — Yesterday and Last 2 Weeks

Now
48 °F

Passing clouds.


Feels Like: N/A
Forecast: 47 / 65 °F
Wind: N/A

Location: Klagenfurt-Flughafen

Current Time: Sep 30, 2016 at 7:01:33 AM

Latest Report: Sep 30, 2016 at 6:00 AM


Visibility: 1 mi

Pressure: 30.15 "Hg

Humidity: 96%

Dew Point: 47 °F

Location of St. Veit an der GlanLocation

Past Weather in St. Veit an der Glan — Graph

°F

St. Veit an der Glan Temperature Yesterday

Maximum temperature yesterday: 72 °F (at 5:00 PM)
Minimum temperature yesterday: 47 °F (at 6:00 AM)
Average temperature yesterday: 57 °F

High & Low Weather Summary for the Past Weeks

 TemperatureHumidityPressure
High78 °F (Sep 15, 5:00 PM)96% (Sep 16, 5:00 AM)30.47 "Hg (Sep 16, 5:00 AM)
Low43 °F (Sep 23, 7:00 AM)36% (Sep 22, 4:00 PM)29.78 "Hg (Sep 17, 6:00 AM)
Average58 °F78%30.11 "Hg
* Reported Sep 15 5:00 AM — Sep 30 5:00 AM, St. Veit an der Glan, Weather by CustomWeather, © 2016

Note: Actual official high and low records may vary slightly from our data, if they occured in-between our weather recording intervals... More about our weather records

Advertising

St. Veit an der Glan Weather History for the Previous 24 Hours

Scroll right to see more
 ConditionsComfort  
Time TempWeatherWind HumidityBarometerVisibility
5:00 AM
Fri, Sep 30
49 °FPassing clouds.N/A95%30.15 "Hg2 mi
3:00 AM51 °FPassing clouds.N/A94%30.16 "Hg1 mi
2:00 AM52 °FCool.N/A94%30.16 "Hg1 mi
1:00 AM53 °FCool.N/A94%30.16 "Hg5 mi
11:00 PM
Thu, Sep 29
55 °FCool.N/A92%30.16 "Hg7 mi
10:00 PM56 °FCool.N/A90%30.15 "Hg9 mi
9:00 PM58 °FCool.N/A88%30.14 "Hg13 mi
8:00 PM61 °FCool.N/A82%30.13 "Hg14 mi
7:00 PM65 °FPassing clouds.N/A75%30.11 "Hg1 mi
6:00 PM71 °FPassing clouds.N/A56%30.10 "Hg11 mi
5:00 PM72 °FScattered clouds.N/A54%30.12 "Hg12 mi
4:00 PM71 °FScattered clouds.N/A51%30.14 "Hg18 mi
3:00 PM70 °FScattered clouds.N/A53%30.17 "Hg17 mi
2:00 PM68 °FScattered clouds.N/A55%30.21 "Hg17 mi
1:00 PM65 °FPartly sunny.N/A64%30.26 "Hg10 mi
12:00 PM62 °FPartly sunny.N/A71%30.30 "Hg14 mi
11:00 AM58 °FPartly sunny.N/A79%30.35 "Hg13 mi
10:00 AM52 °FPartly sunny.N/A88%30.38 "Hg7 mi
9:00 AM49 °FLight rain. Low clouds.N/A93%30.39 "Hg1 mi
8:00 AM47 °FLight rain. Low clouds.N/A94%30.41 "Hg5 mi
7:00 AM48 °FLow clouds.N/A95%30.40 "Hg5 mi
Weather by CustomWeather, © 2016

See weather overviewHow to use our weather pages